Powrót do katalogu

STARLINK-5824

AktywnyŁącznośćVLEO
NORAD 57067·PAYLOAD·🇺🇸 United States

Wystrzelony Jun 22, 2023 z Vandenberg Space Force Base

Loading…

Następne Przeloty (najbliższe 24 godziny)

TLE

ŚwieżeSource: CelesTrak SupGP

Epoka: Sep 15, 2026, 02:24 UTC

1 57067C 23088V   26258.10048611  .00052356  00000+0  18962-2 0  2586
2 57067  43.0011 121.0466 0001276 271.9502 289.5205 15.27554383    13

Śledź STARLINK-5824 w czasie rzeczywistym z AllMySat

Download on the App Store